Millington, TN

11:42 PM CDT on September 29, 2016 (GMT -0500)
Millington Municipal

Weather History for KNQA - November, 2012

Change the Weather History Date:

Friday, November 9, 2012

  Actual Average Record
Temperature  
Mean Temperature 55 °F -  
Max Temperature 71 °F 61 °F 80 °F (2005)
Min Temperature 39 °F 43 °F 32 °F (2008)
Degree Days  
Heating Degree Days 10    
Growing Degree Days 5 (Base 50)    
Moisture  
Dew Point 42 °F    
Average Humidity 69    
Maximum Humidity 93    
Minimum Humidity 46    
Precipitation  
Precipitation 0.00 in - - ()
Sea Level Pressure  
Sea Level Pressure 30.16 in    
Wind  
Wind Speed 4 mph (SE)    
Max Wind Speed 8 mph    
Max Gust Speed -    
Visibility 10 miles    
Events      
Averages and records for this station are not official NWS values.
T = Trace of Precipitation, MM = Missing Value Source: NWS Daily Summary

Daily Weather History Graph

Daily Weather History Graph

Search for Another Location

Airport or City:

Trip Planner

Search our weather history database for the weather conditions in past years. The results will help you decide how hot, cold, wet, or windy it might be!

Date:

Astronomy

Nov. 09, 2012 Rise Set
Actual Time 6:29 AM CST 4:57 PM CST
Civil Twilight 6:02 AM CST 5:23 PM CST
Nautical Twilight 5:32 AM CST 5:54 PM CST
Astronomical Twilight 5:02 AM CST 6:24 PM CST
Moon 1:38 AM CST (11/9) 2:01 PM CST (11/9)
Length of Visible Light 11h 21m
Length of Day
10h 27m
Waning Crescent, 23% of the Moon is Illuminated
Nov 9
Waning Crescent
Nov 13
New
Nov 20
First Quarter
Nov 28
Full
Dec 6
Last Quarter

Hourly Weather History & Observations

Time (CST) Temp. Windchill Dew Point Humidity Pressure Visibility Wind Dir Wind Speed Gust Speed Precip Events Conditions
12:55 AM 42.8 °F 41.1 °F 37.4 °F 81% 30.17 in 10.0 mi SE 3.5 mph - N/A   Clear
1:15 AM 39.2 °F 37.0 °F 37.4 °F 93% 30.17 in 10.0 mi ESE 3.5 mph - N/A   Clear
1:35 AM 39.2 °F 37.0 °F 37.4 °F 93% 30.17 in 10.0 mi ESE 3.5 mph - N/A   Clear
1:55 AM 39.2 °F - 37.4 °F 93% 30.17 in 10.0 mi Calm Calm - N/A   Clear
2:15 AM 41.0 °F - 37.4 °F 87% 30.17 in 10.0 mi Calm Calm - N/A   Clear
2:35 AM 41.0 °F - 37.4 °F 87% 30.18 in 10.0 mi Calm Calm - N/A   Clear
2:55 AM 41.0 °F - 37.4 °F 87% 30.18 in 10.0 mi Calm Calm - N/A   Clear
3:55 AM 41.0 °F - 37.4 °F 87% 30.18 in 10.0 mi Calm Calm - N/A   Clear
4:55 AM 41.0 °F - 37.4 °F 87% 30.20 in 10.0 mi Calm Calm - N/A   Clear
5:55 AM 41.0 °F 39.0 °F 37.4 °F 87% 30.20 in 10.0 mi ESE 3.5 mph - N/A   Clear
6:55 AM 42.8 °F 41.1 °F 39.2 °F 87% 30.22 in 10.0 mi ESE 3.5 mph - N/A   Scattered Clouds
7:55 AM 46.4 °F 44.3 °F 42.8 °F 87% 30.23 in 10.0 mi SE 4.6 mph - N/A   Scattered Clouds
8:55 AM 53.6 °F - 42.8 °F 67% 30.23 in 10.0 mi SSE 5.8 mph - N/A   Scattered Clouds
9:55 AM 60.8 °F - 44.6 °F 55% 30.23 in 10.0 mi South 6.9 mph - N/A   Scattered Clouds
10:55 AM 66.2 °F - 44.6 °F 46% 30.21 in 10.0 mi South 8.1 mph - N/A   Scattered Clouds
11:55 AM 66.2 °F - 44.6 °F 46% 30.18 in 10.0 mi South 8.1 mph - N/A   Scattered Clouds
12:55 PM 69.8 °F - 48.2 °F 46% 30.14 in 10.0 mi South 8.1 mph - N/A   Scattered Clouds
1:55 PM 71.6 °F - 50.0 °F 46% 30.12 in 10.0 mi Variable 6.9 mph - N/A   Scattered Clouds
2:55 PM 71.6 °F - 51.8 °F 50% 30.12 in 10.0 mi South 6.9 mph - N/A   Scattered Clouds
3:55 PM 69.8 °F - 51.8 °F 53% 30.11 in 10.0 mi SSE 8.1 mph - N/A   Scattered Clouds
4:55 PM 66.2 °F - 50.0 °F 56% 30.10 in 10.0 mi SSE 4.6 mph - N/A   Scattered Clouds
5:55 PM 62.6 °F - 46.4 °F 55% 30.11 in 10.0 mi SE 4.6 mph - N/A   Partly Cloudy
6:55 PM 60.8 °F - 44.6 °F 55% 30.12 in 10.0 mi SE 5.8 mph - N/A   Partly Cloudy
7:55 PM 59.0 °F - 42.8 °F 55% 30.12 in 10.0 mi SE 5.8 mph - N/A   Clear
8:55 PM 59.0 °F - 42.8 °F 55% 30.13 in 10.0 mi SE 6.9 mph - N/A   Clear
9:55 PM 57.2 °F - 42.8 °F 59% 30.14 in 10.0 mi SSE 5.8 mph - N/A   Clear
10:55 PM 55.4 °F - 42.8 °F 63% 30.14 in 10.0 mi SE 8.1 mph - N/A   Clear
11:55 PM 55.4 °F - 42.8 °F 63% 30.14 in 10.0 mi SE 5.8 mph - N/A   Clear